Hauptseite
METAR-TAF:

METAR-TAF

Flughäfen :

Piacenza, Italien

Militärflugplatz Piacenza

Breite: 44-55N, Länge: 009-44E, Höhe: 134 m

Beobachtung

Neuester Wetterbericht von vor 5 Stunden und 9 Minuten, um 17:55 UTC
Wind 5 kt aus Ost/Südost
Temperatur 23°C
Luftfeuchtigkeit 73%
Luftdruck 1016 hPa
Sichtweite 10 km oder mehr
keine Wolken unter 1500 m und keine Kumulonimbus oder Gewitterwolken

METAR: LIMS 211755Z 12005KT CAVOK 23/18 Q1016 RMK SKC VIS MIN 9999 WIND THR30 11005KT BLU

Zeit: 01:04 (23:04 UTC)


TAF: fehlend

Wetterbeobachtungen und Prognosen von mehr als 4000 Flughäfen (METAR und TAF Bericht).

Die verfügbaren Stationen werden durch gelbe und rote Markierungen auf der Karte dargestellt.

Führen Sie die Maus auf sie, um den Namen der Station zu sehen.

Darauf klicken, um die Beobachtung von Wetterbeobachtungen und Prognosen zu sehen.

Um die Karte zu ändern : klicken Sie auf den grünen Tasten mit einem schwarzen Kreuz Zum Vergrößern, auf den grünen Button mit einem Gedankenstrich zu verkleinern, oder auf die grünen Pfeile für benachbarte Karten.


METAR-TAF: